Weather History for KCBM - December, 2013

Change the Weather History Date:

Wednesday, December 18, 2013

  Actual Average Record
Temperature  
Mean Temperature 42 °F -  
Max Temperature 58 °F 52 °F 69 °F (2006)
Min Temperature 27 °F 33 °F 17 °F (2000)
Degree Days  
Heating Degree Days 22    
Moisture  
Dew Point 30 °F    
Average Humidity 74    
Maximum Humidity 99    
Minimum Humidity 32    
Precipitation  
Precipitation 0.00 in - - ()
Sea Level Pressure  
Sea Level Pressure 30.32 in    
Wind  
Wind Speed 2 mph (SE)    
Max Wind Speed 9 mph    
Max Gust Speed -    
Visibility 9 miles    
Events      
Averages and records for this station are not official NWS values.
T = Trace of Precipitation, MM = Missing Value Source: NWS Daily Summary

Daily Weather History Graph

Daily Weather History Graph

Search for Another Location

Airport or City:

Trip Planner

Search our weather history database for the weather conditions in past years. The results will help you decide how hot, cold, wet, or windy it might be!

Date:

Astronomy

Dec. 18, 2013 Rise Set
Actual Time 6:52 AM CST 4:48 PM CST
Civil Twilight 6:25 AM CST 5:15 PM CST
Nautical Twilight 5:54 AM CST 5:47 PM CST
Astronomical Twilight 5:23 AM CST 6:17 PM CST
Moon 6:15 PM CST (12/18) 7:36 AM CST (12/18)
Length of Visible Light 10h 50m
Length of Day
9h 55m
Full, 98% of the Moon is Illuminated
Dec 18
Full
Dec 25
Last Quarter
Jan 1
New
Jan 7
First Quarter
Jan 15
Full

Hourly Weather History & Observations

Time (CST) Temp. Windchill Dew Point Humidity Pressure Visibility Wind Dir Wind Speed Gust Speed Precip Events Conditions
12:58 AM 31.5 °F - 30.2 °F 95% 30.32 in 10.0 mi Calm Calm - N/A   Clear
1:58 AM 30.9 °F - 29.7 °F 95% 30.33 in 10.0 mi Calm Calm - N/A   Clear
2:28 AM 32.0 °F - 30.2 °F 93% 30.32 in 4.0 mi Calm Calm - N/A   Clear
2:33 AM 32.0 °F - 30.2 °F 93% 30.32 in 2.5 mi Calm Calm - N/A   Clear
2:38 AM 32.0 °F - 30.2 °F 93% 30.32 in 3.0 mi Calm Calm - N/A   Clear
2:43 AM 32.0 °F - 30.2 °F 93% 30.32 in 5.0 mi Calm Calm - N/A   Clear
2:58 AM 31.6 °F - 30.9 °F 97% 30.33 in 10.0 mi Calm Calm - N/A   Clear
3:58 AM 28.6 °F - 27.5 °F 96% 30.34 in 10.0 mi Calm Calm - N/A   Clear
4:58 AM 28.9 °F - 28.2 °F 97% 30.35 in 10.0 mi Calm Calm - N/A   Clear
5:58 AM 29.5 °F - 28.8 °F 97% 30.38 in 10.0 mi NNE 1.2 mph - N/A   Clear
6:58 AM 27.7 °F - 27.0 °F 97% 30.38 in 10.0 mi Calm Calm - N/A   Clear
7:58 AM 31.3 °F - 30.9 °F 99% 30.40 in 10.0 mi Calm Calm - N/A   Clear
8:58 AM 39.6 °F - 34.5 °F 82% 30.41 in 10.0 mi East 1.2 mph - N/A   Clear
9:58 AM 47.8 °F - 28.2 °F 47% 30.41 in 10.0 mi SE 6.9 mph - N/A   Clear
10:58 AM 50.9 °F - 27.7 °F 41% 30.40 in 10.0 mi ESE 4.6 mph - N/A   Clear
11:58 AM 52.9 °F - 27.7 °F 38% 30.38 in 10.0 mi SE 4.6 mph - N/A   Clear
12:58 PM 55.9 °F - 28.2 °F 35% 30.33 in 10.0 mi Variable 2.3 mph - N/A   Clear
1:58 PM 57.6 °F - 28.2 °F 33% 30.30 in 10.0 mi Variable 3.5 mph - N/A   Clear
2:58 PM 58.5 °F - 28.4 °F 32% 30.29 in 10.0 mi SSE 4.6 mph - N/A   Clear
3:58 PM 57.7 °F - 29.3 °F 34% 30.30 in 10.0 mi South 5.8 mph - N/A   Clear
4:58 PM 47.5 °F - 31.8 °F 55% 30.27 in 10.0 mi SSE 5.8 mph - N/A   Clear
5:58 PM 44.4 °F 40.5 °F 31.8 °F 61% 30.27 in 10.0 mi SE 6.9 mph - N/A   Clear
6:58 PM 40.6 °F 36.7 °F 31.1 °F 69% 30.27 in 10.0 mi SSE 5.8 mph - N/A   Clear
7:58 PM 38.7 °F 35.2 °F 31.1 °F 74% 30.28 in 10.0 mi SE 4.6 mph - N/A   Clear
8:58 PM 34.9 °F 30.8 °F 30.7 °F 85% 30.25 in 10.0 mi SSE 4.6 mph - N/A   Clear
9:58 PM 38.7 °F 32.4 °F 31.5 °F 75% 30.25 in 10.0 mi SE 9.2 mph - N/A   Clear
10:58 PM 34.3 °F - 29.8 °F 84% 30.25 in 10.0 mi South 2.3 mph - N/A   Clear
11:58 PM 34.9 °F 29.9 °F 29.3 °F 80% 30.25 in 10.0 mi SSE 5.8 mph - N/A   Clear